默认 日期 大小 文件数 浏览量 最新下载 xml
failed磁力链接相关资源由用户搜索指令自动获取,结果来源于网络,本站不存储任何资料,亦不承担任何责任,请于24小时内删除,搜索到8304个磁力,显示前4000条数据,用时9ms。
    {"RARBG.txt": 30, "p.16.02.08.llbmixm.xxx-failed.mp4": 675977784, "p.16.02.08.llbmixm.720.xxx-failed.nfo": 1716}
创建时间: 2018-11-14 00:54:10 大小:644.66 MB 文件数量:3 热度:16 最近下载:2025-08-04 09:29:04
    {"RARBG.com.txt": 34, "p.14.08.23.jrifmtgxm.xxx-failed.mp4": 1401241126, "p.14.08.23.jrifmtgxm.xxx-failed.nfo": 1668}
创建时间: 2018-11-15 23:25:00 大小:1.31 GB 文件数量:3 热度:16 最近下载:2025-04-01 21:36:02
    {"Kleane - Democracy and Media Decadence (2013).pdf": 6007575, "Hindman - The Myth of Digital Democracy (2009).epub": 2969177, "Schultz - Democracy and Coercive Diplomacy (2004).pdf": 1247018, "Filipwics - Democracy - the Power of Illusion (2013).pdf": ...
创建时间: 2018-11-17 19:24:06 大小:137.49 MB 文件数量:35 热度:16 最近下载:2025-03-09 00:49:01
    {"RARBG.com.txt": 34, "p.12.08.21.bbxm.xxx-failed.mp4": 340319794, "p.12.08.21.bbxm.xxx-failed.nfo": 1649}
创建时间: 2018-11-19 20:31:27 大小:324.56 MB 文件数量:3 热度:16 最近下载:2025-08-06 23:07:09
    {"RARBG.txt": 30, "shattered.1991.720p.web.x264-failed.mkv": 1523312719, "shattered.1991.720p.web.x264-failed.nfo": 7937}
创建时间: 2018-11-22 09:37:02 大小:1.42 GB 文件数量:3 热度:16 最近下载:2025-02-15 23:11:02
    {"RARBG.com.txt": 34, "p.13.05.05.adipdxm.xxx-failed.mp4": 678877310, "p.13.05.05.adipdxm.xxx-failed.nfo": 1665}
创建时间: 2018-11-23 04:05:43 大小:647.43 MB 文件数量:3 热度:16 最近下载:2025-08-31 19:10:01
    {"p.17.02.04.scssixm.xxx-failed.mp4": 721005382}
创建时间: 2018-11-24 14:40:50 大小:687.6 MB 文件数量:1 热度:16 最近下载:2025-04-16 02:39:02
    {"RARBG.txt": 30, "failed.nfo": 1526, "file_id.diz": 76, " ...
创建时间: 2018-11-24 20:44:35 大小:7.93 MB 文件数量:29 热度:16 最近下载:2025-01-31 06:42:04
    {"RARBG.com.txt": 34, "p.12.01.06.mxah34.hbxm.xxx-failed.mp4": 434519527, "p.12.01.06.mxah34.hbxm.xxx-failed.nfo": 1666}
创建时间: 2018-11-25 16:48:04 大小:414.39 MB 文件数量:3 热度:16 最近下载:2025-07-12 13:42:01
    {"got.mobi": 1358136, "audiobook-sample.mp3": 2399773, "free audiobook version.txt": 366}
创建时间: 2018-11-26 23:01:20 大小:3.58 MB 文件数量:3 热度:16 最近下载:2025-08-03 04:47:03
    {"RARBG.com.txt": 34, "p.15.08.23.kkicdmtxm.xxx-failed.mp4": 817291888, "p.15.08.23.kkicdmtxm.1080.xxx-failed.nfo": 1558}
创建时间: 2018-11-27 18:47:23 大小:779.43 MB 文件数量:3 热度:16 最近下载:2025-04-01 21:17:01
    {"RARBG.com.txt": 34, "p.11.01.13.mtwrlxm.xxx-failed.mp4": 249137556, "p.11.01.13.mtwrlxm.xxx-failed.nfo": 1659}
创建时间: 2018-11-28 14:32:24 大小:237.6 MB 文件数量:3 热度:16 最近下载:2025-06-14 18:19:02
    {"RARBG.com.txt": 34, "p.12.05.20.vbxm.xxx-failed.mp4": 212424463, "p.12.05.20.vbxm.xxx-failed.nfo": 1648}
创建时间: 2018-11-29 10:38:40 大小:202.59 MB 文件数量:3 热度:16 最近下载:2025-09-08 09:35:02
    {"RARBG.com.txt": 34, "p.12.12.21.avipahxm.xxx-failed.mp4": 294138970, "p.12.12.21.avipahxm.xxx-failed.nfo": 1677}
创建时间: 2018-12-02 22:48:46 大小:280.51 MB 文件数量:3 热度:16 最近下载:2025-05-14 23:41:02
    {"p.16.02.20.psoawixm.xxx-failed[N1C].mp4": 898629401}
创建时间: 2018-12-04 12:06:34 大小:857 MB 文件数量:1 热度:16 最近下载:2025-07-29 12:51:04
    {"RARBG.com.txt": 34, "p.16.12.06.cvisdafmxm.xxx-failed.mp4": 798319191, "p.16.12.06.cvisdafmxm.1080.xxx-failed.nfo": 1566}
创建时间: 2018-12-04 14:32:01 大小:761.34 MB 文件数量:3 热度:16 最近下载:2025-04-01 21:07:02
    {"poster.jpg": 47484, "screen_0.jpg": 22296, "screen_1.jpg": 46525, "screen_2.jpg": 56869, "screen_3.jpg": 45310, "screen_4.jpg": 21837, "200382-h-001.jpg": 1058686, "200382-h-002.jpg": 941566, "200382-h-003.jpg": 1049522, "200382-h-004.jpg": 970782, " ...
创建时间: 2018-12-05 15:48:42 大小:102.34 MB 文件数量:95 热度:16 最近下载:2025-03-10 02:23:01
    {"Sample": {"failed-al.xxx.mp4-sample.mp4": 9008451}, "RARBG.com.txt": 34, "failed-al.xxx.mp4.mp4": 194584104, "failed-al.xxx.mp4.nfo": 1024}
创建时间: 2018-12-07 12:36:58 大小:194.16 MB 文件数量:4 热度:16 最近下载:2025-04-18 04:56:01
    {"RARBG.com.txt": 34, "p.13.03.03.migexm.xxx-failed.mp4": 285583852, "p.13.03.03.migexm.xxx-failed.nfo": 1667}
创建时间: 2018-12-07 22:48:09 大小:272.36 MB 文件数量:3 热度:16 最近下载:2025-10-02 08:32:02
    {"RARBG.com.txt": 34, "acs.120522.jycalmah.xxx-failed.nfo": 1799, "acs.120522.jycalmah.xxx-failed.wmv": 64687556}
创建时间: 2018-12-08 15:02:16 大小:61.69 MB 文件数量:3 热度:16 最近下载:2025-03-24 13:55:03